Location: Albany
(35.0170°S, 117.8920°E)
Time: 21:28:11
(UTC+08:00)

A-11 Canister half - Pass Details

Date: 22 January 2021
Orbit: 1525 x 1684 km, 47.3° (Epoch: 03 March)

Event Time Altitude Azimuth Distance (km) Brightness Sun altitude
Rises 00:18:15 0° 360° (N) 4,918 - -35.2°
Reaches altitude 10° 00:22:43 10° 16° (NNE) 3,939 - -35.2°
Maximum altitude 00:29:07 19° 56° (NE) 3,274 - -35.2°
Exits shadow 00:31:22 18° 72° (ENE) 3,362 10.6 -35.2°
Drops below altitude 10° 00:35:29 10° 96° (E) 3,928 11.2 -35.1°
Sets 00:39:51 0° 112° (ESE) 4,900 12.0 -35.0°
